Hourly Weather Alimkent

Today, 5 December, Saturday

Time Temperature Precipitation Wind Pressure Humidity
00:00 -1°C° 0 mm 1 mps 741 mmHg 52%
01:00 -1°C° 0 mm 1 mps 741 mmHg 52%
02:00 -1°C° 0 mm 1 mps 741 mmHg 52%
03:00 -1°C° 0 mm 1 mps 741 mmHg 52%
04:00 -1°C° 0 mm 1 mps 741 mmHg 52%
05:00 -2°C° 0 mm 1 mps 741 mmHg 56%
06:00 -2°C° 0 mm 1 mps 741 mmHg 56%
07:00 -3°C° 0 mm 0 mps 741 mmHg 56%
08:00 -3°C° 0 mm 0 mps 741 mmHg 56%
09:00 -2°C° 0 mm 0 mps 741 mmHg 52%
10:00 +1°C° 0 mm 1 mps 741 mmHg 48%
11:00 +2°C° 0 mm 1 mps 741 mmHg 44%
12:00 +3°C° 0 mm 1 mps 741 mmHg 43%
13:00 +3°C° 0 mm 1 mps 740 mmHg 42%
14:00 +4°C° 0 mm 1 mps 740 mmHg 41%
15:00 +3°C° 0 mm 1 mps 740 mmHg 43%
16:00 +2°C° 0 mm 1 mps 741 mmHg 46%
17:00 +2°C° 0 mm 1 mps 741 mmHg 49%
18:00 +1°C° 0 mm 1 mps 741 mmHg 50%
19:00 +1°C° 0 mm 1 mps 741 mmHg 52%
20:00 -2°C° 0 mm 2 mps 741 mmHg 54%
21:00 -2°C° 0 mm 2 mps 741 mmHg 54%
22:00 0°C° 0 mm 1 mps 741 mmHg 55%
23:00 0°C° 0 mm 1 mps 741 mmHg 56%

Tomorrow, 6 December, Sunday

Time Temperature Precipitation Wind Pressure Humidity
00:00 0°C° 0 mm 1 mps 741 mmHg 56%
01:00 0°C° 0 mm 1 mps 741 mmHg 56%
02:00 0°C° 0 mm 1 mps 741 mmHg 56%
03:00 0°C° 0 mm 1 mps 741 mmHg 55%
04:00 0°C° 0 mm 1 mps 742 mmHg 54%
05:00 0°C° 0 mm 1 mps 742 mmHg 54%
06:00 0°C° 0 mm 1 mps 742 mmHg 54%
07:00 0°C° 0 mm 1 mps 742 mmHg 53%
08:00 -1°C° 0 mm 0 mps 742 mmHg 53%
09:00 +1°C° 0 mm 1 mps 742 mmHg 50%
10:00 +2°C° 0 mm 1 mps 741 mmHg 47%
11:00 +3°C° 0 mm 1 mps 741 mmHg 44%
12:00 +4°C° 0 mm 1 mps 741 mmHg 44%
13:00 +5°C° 0 mm 1 mps 741 mmHg 43%
14:00 +6°C° 0 mm 1 mps 741 mmHg 43%
15:00 +5°C° 0 mm 1 mps 741 mmHg 45%
16:00 +4°C° 0 mm 1 mps 741 mmHg 48%
17:00 +4°C° 0 mm 1 mps 741 mmHg 51%
18:00 +3°C° 0 mm 1 mps 741 mmHg 53%
19:00 +2°C° 0 mm 2 mps 741 mmHg 55%
20:00 +1°C° 0 mm 2 mps 741 mmHg 56%
21:00 +2°C° 0 mm 1 mps 740 mmHg 58%
22:00 +1°C° 0 mm 1 mps 740 mmHg 61%
23:00 +1°C° 0 mm 1 mps 740 mmHg 63%

Day after tomorrow, 7 December, Monday

Time Temperature Precipitation Wind Pressure Humidity
00:00 +1°C° 0 mm 1 mps 739 mmHg 65%
01:00 +1°C° 0 mm 1 mps 739 mmHg 67%
02:00 0°C° 0 mm 1 mps 739 mmHg 69%
03:00 0°C° 0 mm 1 mps 739 mmHg 70%
04:00 0°C° 0 mm 1 mps 738 mmHg 70%
05:00 -1°C° 0 mm 1 mps 738 mmHg 71%
06:00 -1°C° 0 mm 1 mps 738 mmHg 71%
07:00 -1°C° 0 mm 1 mps 738 mmHg 71%
08:00 -1°C° 0 mm 1 mps 739 mmHg 71%
09:00 0°C° 0 mm 1 mps 739 mmHg 67%
10:00 -1°C° 0 mm 2 mps 739 mmHg 62%
11:00 +1°C° 0 mm 2 mps 739 mmHg 57%
12:00 +1°C° 0 mm 2 mps 739 mmHg 55%
13:00 +2°C° 0 mm 2 mps 739 mmHg 52%
14:00 +2°C° 0 mm 2 mps 738 mmHg 49%
15:00 +2°C° 0 mm 2 mps 739 mmHg 51%
16:00 +1°C° 0 mm 2 mps 739 mmHg 52%
17:00 -1°C° 0 mm 2 mps 739 mmHg 53%
18:00 -1°C° 0 mm 2 mps 740 mmHg 52%
19:00 -2°C° 0 mm 2 mps 740 mmHg 50%
20:00 -3°C° 0 mm 2 mps 741 mmHg 49%
21:00 -3°C° 0 mm 2 mps 741 mmHg 50%
22:00 -1°C° 0 mm 1 mps 741 mmHg 50%
23:00 -2°C° 0 mm 1 mps 741 mmHg 51%

8 December, Tuesday

Time Temperature Precipitation Wind Pressure Humidity
00:00 -2°C° 0 mm 1 mps 741 mmHg 51%
01:00 -2°C° 0 mm 1 mps 741 mmHg 51%
02:00 -2°C° 0 mm 1 mps 741 mmHg 51%
03:00 -2°C° 0 mm 1 mps 741 mmHg 52%
04:00 -2°C° 0 mm 1 mps 741 mmHg 52%
05:00 -2°C° 0 mm 1 mps 741 mmHg 52%
06:00 -2°C° 0 mm 1 mps 741 mmHg 53%
07:00 -2°C° 0 mm 1 mps 741 mmHg 53%
08:00 -3°C° 0 mm 1 mps 741 mmHg 53%
09:00 -2°C° 0 mm 1 mps 742 mmHg 53%
10:00 -2°C° 0 mm 1 mps 742 mmHg 54%
11:00 -1°C° 0 mm 1 mps 742 mmHg 54%
12:00 -1°C° 0 mm 1 mps 742 mmHg 54%
13:00 0°C° 0 mm 1 mps 741 mmHg 54%
14:00 0°C° 0 mm 1 mps 741 mmHg 54%
15:00 0°C° 0 mm 1 mps 742 mmHg 55%
16:00 0°C° 0 mm 1 mps 742 mmHg 56%
17:00 0°C° 0 mm 1 mps 742 mmHg 57%
18:00 0°C° 0 mm 1 mps 743 mmHg 56%
19:00 -1°C° 0 mm 1 mps 743 mmHg 55%
20:00 -1°C° 0 mm 1 mps 743 mmHg 53%
21:00 -2°C° 0 mm 1 mps 743 mmHg 53%
22:00 -2°C° 0 mm 1 mps 743 mmHg 53%
23:00 -2°C° 0 mm 1 mps 744 mmHg 52%

9 December, Wednesday

Time Temperature Precipitation Wind Pressure Humidity
00:00 -3°C° 0 mm 1 mps 744 mmHg 53%
01:00 -4°C° 0 mm 0 mps 744 mmHg 54%
02:00 -4°C° 0 mm 0 mps 744 mmHg 54%
03:00 -4°C° 0 mm 0 mps 744 mmHg 55%
04:00 -4°C° 0 mm 1 mps 744 mmHg 55%
05:00 -4°C° 0 mm 1 mps 744 mmHg 56%
06:00 -4°C° 0 mm 1 mps 744 mmHg 56%
07:00 -4°C° 0 mm 1 mps 744 mmHg 56%
08:00 -5°C° 0 mm 0 mps 744 mmHg 56%
09:00 -3°C° 0 mm 1 mps 744 mmHg 52%
10:00 -2°C° 0 mm 1 mps 744 mmHg 48%
11:00 0°C° 0 mm 1 mps 744 mmHg 45%
12:00 0°C° 0 mm 1 mps 744 mmHg 43%
13:00 +1°C° 0 mm 1 mps 743 mmHg 41%
14:00 +2°C° 0 mm 1 mps 743 mmHg 39%
15:00 +1°C° 0 mm 1 mps 743 mmHg 41%
16:00 0°C° 0 mm 1 mps 743 mmHg 42%
17:00 -1°C° 0 mm 1 mps 743 mmHg 44%
18:00 -1°C° 0 mm 1 mps 743 mmHg 45%
19:00 -2°C° 0 mm 1 mps 743 mmHg 47%
20:00 -2°C° 0 mm 1 mps 743 mmHg 48%
21:00 -2°C° 0 mm 1 mps 743 mmHg 49%
22:00 -3°C° 0 mm 0 mps 743 mmHg 51%
23:00 -4°C° 0 mm 0 mps 743 mmHg 52%

10 December, Thursday

Time Temperature Precipitation Wind Pressure Humidity
00:00 -4°C° 0 mm 0 mps 743 mmHg 52%
01:00 -4°C° 0 mm 0 mps 743 mmHg 52%
02:00 -4°C° 0 mm 0 mps 743 mmHg 52%
03:00 -4°C° 0 mm 0 mps 743 mmHg 52%
04:00 -4°C° 0 mm 0 mps 743 mmHg 53%
05:00 -4°C° 0 mm 0 mps 743 mmHg 53%
06:00 -4°C° 0 mm 0 mps 743 mmHg 53%
07:00 -4°C° 0 mm 0 mps 743 mmHg 54%
08:00 -3°C° 0 mm 1 mps 743 mmHg 54%
09:00 -2°C° 0 mm 1 mps 743 mmHg 49%
10:00 0°C° 0 mm 1 mps 743 mmHg 44%
11:00 +2°C° 0 mm 1 mps 743 mmHg 39%
12:00 +3°C° 0 mm 1 mps 743 mmHg 36%
13:00 +2°C° 0 mm 2 mps 742 mmHg 34%
14:00 +3°C° 0 mm 2 mps 742 mmHg 32%
15:00 +2°C° 0 mm 2 mps 742 mmHg 36%
16:00 +1°C° 0 mm 2 mps 742 mmHg 39%
17:00 +1°C° 0 mm 1 mps 742 mmHg 42%
18:00 +1°C° 0 mm 1 mps 742 mmHg 44%
19:00 0°C° 0 mm 1 mps 742 mmHg 45%
20:00 0°C° 0 mm 1 mps 743 mmHg 46%
21:00 0°C° 0 mm 1 mps 742 mmHg 47%
22:00 -1°C° 0 mm 1 mps 742 mmHg 48%
23:00 -1°C° 0 mm 1 mps 742 mmHg 48%
Show more

We Need Your Consent

Meteoprog and our Service Providers may store and access personal data such as cookies, device identifiers or other similar technologies on your device and process such data to personalise content and ads, as well as provide social media features and to analyse the traffic.

  • Store and/or access information on your device

    Cookies, device identifiers or other information can be stored or accessed on your device for the purposes indicated above.

  • Personalised ads and content, ad and content measurement, audience insights, and products development

    Ads and content can be personalised based on a profile. More data can be added to better personalise ads and content. Ad and content performance can be measured. Insights about the audience who saw the ads and content can be derived. Such data can be used to develop or improve user’s experience, systems and software.

By clicking ‘I Agree’ you will allow the use of indicated cookies, device identifiers, web beacons or other similar technologies. Your settings can be changed in the browser on your device.

For certain purposes, legitimate interests may be relied on, rather than consent. You can read more about this in our Privacy and Cookie Policy.